User: anonymous   Login
Location: M.A.R.S.Observatory
(35.4031°N, 81.5481°W)
Time: 10:43:51
(UTC-04:00)
Language:

SL-8 R/B - Orbit

View from above orbital plane
View from above orbital plane
View from above satellite
View from above satellite

Ground track
Ground track

The orbit data is extracted from the following two-line orbital elements,

1 33066U 08031G   17268.80006759 -.00000069  00000-0  21162-4 0  9991
2 33066  48.4452 359.7748 0007868 185.4242 327.7385 14.69566673497553
Epoch (UTC): 25 September 2017 19:12:05
Eccentricity: 0.0007868
inclination: 48.4452°
perigee height: 657 km
apogee height: 668 km
right ascension of ascending node: 359.7748°
argument of perigee: 185.4242°
revolutions per day: 14.69566673
mean anomaly at epoch: 327.7385°
orbit number at epoch: 49755

The dashed part of the orbit path shows where the satellite is in the earth's shadow,  

DLR